TimeCDT,TemperatureF,Dew PointF,Humidity,Sea Level PressureIn,VisibilityMPH,Wind Direction,Wind SpeedMPH,Gust SpeedMPH,PrecipitationIn,Events,Conditions,WindDirDegrees,DateUTC
12:53 AM,36.0,35.1,97,30.13,3.0,Calm,Calm,-,N/A,,Clear,0,2012-10-30 05:53:00
1:15 AM,36.0,35.1,97,30.13,1.8,Calm,Calm,-,N/A,,Clear,0,2012-10-30 06:15:00
2:08 AM,35.1,34.0,96,30.12,0.8,Calm,Calm,-,N/A,,Clear,0,2012-10-30 07:08:00
2:53 AM,34.0,33.1,96,30.11,0.5,Calm,Calm,-,N/A,Fog,Fog,0,2012-10-30 07:53:00
3:02 AM,34.0,33.1,96,30.11,0.5,Calm,Calm,-,N/A,Fog,Fog,0,2012-10-30 08:02:00
3:15 AM,35.1,34.0,96,30.10,2.0,Calm,Calm,-,N/A,,Clear,0,2012-10-30 08:15:00
3:22 AM,33.1,33.1,100,30.10,5.0,Calm,Calm,-,N/A,,Clear,0,2012-10-30 08:22:00
3:27 AM,32.0,30.9,96,30.10,1.2,Calm,Calm,-,N/A,,Partly Cloudy,0,2012-10-30 08:27:00
3:32 AM,32.0,30.9,96,30.10,0.2,Calm,Calm,-,N/A,Fog,Fog,0,2012-10-30 08:32:00
3:53 AM,32.0,32.0,100,30.10,1.2,Calm,Calm,-,N/A,,Partly Cloudy,0,2012-10-30 08:53:00
3:56 AM,32.0,32.0,100,30.10,3.0,Calm,Calm,-,N/A,,Partly Cloudy,0,2012-10-30 08:56:00
4:21 AM,33.1,32.0,96,30.10,1.8,Calm,Calm,-,N/A,,Clear,0,2012-10-30 09:21:00
4:44 AM,32.0,30.9,96,30.10,0.5,Calm,Calm,-,N/A,Fog,Fog,0,2012-10-30 09:44:00
4:51 AM,32.0,30.2,93,30.10,0.5,Calm,Calm,-,N/A,Fog,Fog,0,2012-10-30 09:51:00
4:53 AM,32.0,30.9,96,30.10,0.5,Calm,Calm,-,N/A,Fog,Fog,0,2012-10-30 09:53:00
5:17 AM,32.0,32.0,100,30.11,1.0,Calm,Calm,-,N/A,,Clear,0,2012-10-30 10:17:00
5:36 AM,32.0,30.9,96,30.11,3.0,Calm,Calm,-,N/A,,Clear,0,2012-10-30 10:36:00
5:53 AM,30.9,30.0,96,30.11,6.0,Calm,Calm,-,N/A,,Clear,0,2012-10-30 10:53:00
6:53 AM,30.9,30.0,96,30.10,5.0,Calm,Calm,-,N/A,,Clear,0,2012-10-30 11:53:00
7:11 AM,30.9,30.0,96,30.10,1.8,Calm,Calm,-,N/A,,Clear,0,2012-10-30 12:11:00
7:42 AM,30.9,30.0,96,30.10,0.8,Calm,Calm,-,N/A,,Mist,0,2012-10-30 12:42:00
7:50 AM,30.2,30.2,100,30.10,0.2,Calm,Calm,-,N/A,Fog,Light Freezing Fog,0,2012-10-30 12:50:00
7:53 AM,30.9,30.0,96,30.11,0.2,Calm,Calm,-,N/A,Fog,Light Freezing Fog,0,2012-10-30 12:53:00
8:03 AM,32.0,32.0,100,30.11,1.0,Calm,Calm,-,N/A,,Mist,0,2012-10-30 13:03:00
8:10 AM,32.0,32.0,100,30.11,1.8,Calm,Calm,-,N/A,,Partly Cloudy,0,2012-10-30 13:10:00
8:20 AM,33.1,33.1,100,30.11,2.5,Calm,Calm,-,N/A,,Clear,0,2012-10-30 13:20:00
8:39 AM,35.1,33.1,92,30.11,5.0,Calm,Calm,-,N/A,,Clear,0,2012-10-30 13:39:00
8:53 AM,36.0,35.1,97,30.11,7.0,Calm,Calm,-,N/A,,Clear,0,2012-10-30 13:53:00
9:53 AM,46.0,39.9,79,30.10,10.0,Calm,Calm,-,N/A,,Clear,0,2012-10-30 14:53:00
10:53 AM,52.0,41.0,66,30.09,10.0,Calm,Calm,-,N/A,,Clear,0,2012-10-30 15:53:00
11:53 AM,60.1,39.0,46,30.07,10.0,West,6.9,-,N/A,,Clear,260,2012-10-30 16:53:00
12:53 PM,64.9,37.9,37,30.04,10.0,West,6.9,-,N/A,,Clear,280,2012-10-30 17:53:00
1:53 PM,68.0,36.0,31,29.99,10.0,West,8.1,-,N/A,,Partly Cloudy,260,2012-10-30 18:53:00
2:53 PM,71.1,37.0,29,29.96,10.0,WNW,8.1,-,N/A,,Clear,300,2012-10-30 19:53:00
3:53 PM,72.0,37.0,28,29.94,10.0,WSW,8.1,-,N/A,,Clear,240,2012-10-30 20:53:00
4:53 PM,72.0,37.9,29,29.93,10.0,SW,5.8,-,N/A,,Clear,220,2012-10-30 21:53:00
5:53 PM,69.1,39.0,33,29.93,10.0,South,4.6,-,N/A,,Clear,190,2012-10-30 22:53:00
6:53 PM,57.0,43.0,59,29.93,10.0,Calm,Calm,-,N/A,,Clear,0,2012-10-30 23:53:00
7:53 PM,52.0,44.1,74,29.94,10.0,East,3.5,-,N/A,,Scattered Clouds,80,2012-10-31 00:53:00
8:53 PM,48.9,43.0,80,29.94,10.0,Calm,Calm,-,N/A,,Clear,0,2012-10-31 01:53:00
9:53 PM,46.0,42.1,86,29.96,10.0,Calm,Calm,-,N/A,,Clear,0,2012-10-31 02:53:00
10:53 PM,45.0,42.1,90,29.95,9.0,East,3.5,-,N/A,,Clear,80,2012-10-31 03:53:00
11:53 PM,44.1,41.0,89,29.95,8.0,Calm,Calm,-,N/A,,Clear,0,2012-10-31 04:53:00